Hazard, Kentucky, United States (41701)
Lat: 37.25N, Lon: 83.19W
Wx Zone: KYZ115
Local Info
Past Weather Observations for Thursday, May 21, 2015

NOTE: This archive is for the closest National Weather Service station to Hazard. Information may differ from the station used for current weather conditions.

Click here for Long-term Archive

Time Weather Temperature Dewpoint Humidity Pressure Winds Precip Visibility
23:53
Clear
Fog And Mist
46°F / 8°C 45°F / 7°C 93% 30.18 in
(1022 mb)
W 3.5 mph
(W 6 kph)
- 6SM
22:53
Clear
Fog And Mist
48°F / 9°C 45°F / 7°C 87% 30.15 in
(1021 mb)
SSW 3.5 mph
(SSW 6 kph)
- 6SM
21:53
Overcast
Fog And Mist
48°F / 9°C 46°F / 8°C 94% 30.15 in
(1021 mb)
Calm - 3SM
20:53
Overcast
Fog And Mist
50°F / 10°C 46°F / 8°C 88% 30.12 in
(1020 mb)
Calm - 5SM
20:20
Overcast
50°F / 10°C 46°F / 8°C 88% 30.12 in
(1020 mb)
NW 3.5 mph
(NW 6 kph)
- 7SM
20:13
Overcast
50°F / 10°C 46°F / 8°C 88% 30.12 in
(1020 mb)
Calm - 7SM
19:53
Overcast
50°F / 10°C 46°F / 8°C 88% 30.12 in
(1020 mb)
W 3.5 mph
(W 6 kph)
- 8SM
19:10
Overcast
50°F / 10°C 46°F / 8°C 88% 30.09 in
(1019 mb)
NW 4.6 mph
(NW 7 kph)
- 7SM
18:53
Overcast
Fog And Mist
50°F / 10°C 46°F / 8°C 88% 30.09 in
(1019 mb)
NW 4.6 mph
(NW 7 kph)
0.00 in
(0.00 mm)
6SM
18:17
Overcast
Fog And Mist
52°F / 11°C 48°F / 9°C 88% 30.09 in
(1019 mb)
NW 3.5 mph
(NW 6 kph)
- 5SM
17:53
Overcast
Fog And Mist
52°F / 11°C 48°F / 9°C 88% 30.09 in
(1019 mb)
NW 5.8 mph
(NW 9 kph)
- 5SM
17:48
Overcast
Fog And Mist
52°F / 11°C 48°F / 9°C 88% 30.09 in
(1019 mb)
Variable 5.8 mph
(Variable 9 kph)
- 5SM
17:16
Overcast
Fog And Mist
52°F / 11°C 48°F / 9°C 88% 30.06 in
(1018 mb)
NW 6.9 mph
(NW 11 kph)
- 5SM
16:53
Overcast
Fog And Mist
52°F / 11°C 48°F / 9°C 88% 30.06 in
(1018 mb)
NW 6.9 mph
(NW 11 kph)
0.05 in
(1.27 mm)
4SM
16:44
Overcast
Light Rain
52°F / 11°C 48°F / 9°C 88% 30.06 in
(1018 mb)
NNW 8.1 mph
(NNW 13 kph)
0.04 in
(1.02 mm)
2SM
16:37
Overcast
Light Rain
52°F / 11°C 48°F / 9°C 88% 30.06 in
(1018 mb)
NW 6.9 mph
(NW 11 kph)
0.03 in
(0.76 mm)
1 3/4SM
16:11
Overcast
Light Rain
52°F / 11°C 48°F / 9°C 88% 30.06 in
(1018 mb)
NW 5.8 mph
(NW 9 kph)
0.03 in
(0.76 mm)
3SM
15:53
Overcast
Light Rain
52°F / 11°C 50°F / 10°C 94% 30.06 in
(1018 mb)
W 5.8 mph
(W 9 kph)
0.00 in
(0.00 mm)
2SM
15:49
Overcast
Light Rain
54°F / 12°C 50°F / 10°C 88% 30.06 in
(1018 mb)
Variable 3.5 mph
(Variable 6 kph)
0.00 in
(0.00 mm)
3SM
15:22
Overcast
54°F / 12°C 50°F / 10°C 88% 30.06 in
(1018 mb)
Variable 3.5 mph
(Variable 6 kph)
0.00 in
(0.00 mm)
8SM
15:01
Overcast
Fog And Mist
52°F / 11°C 48°F / 9°C 88% 30.06 in
(1018 mb)
Variable 4.6 mph
(Variable 7 kph)
0.00 in
(0.00 mm)
5SM
14:53
Overcast
Light Rain
52°F / 11°C 48°F / 9°C 88% 30.06 in
(1018 mb)
NW 8.1 mph
(NW 13 kph)
0.00 in
(0.00 mm)
4SM
14:42
Overcast
Light Rain
52°F / 11°C 48°F / 9°C 88% 30.06 in
(1018 mb)
WNW 6.9 mph
(WNW 11 kph)
0.00 in
(0.00 mm)
3SM
14:35
Overcast
Light Rain
52°F / 11°C 50°F / 10°C 94% 30.06 in
(1018 mb)
NW 6.9 mph
(NW 11 kph)
0.00 in
(0.00 mm)
3SM
14:30
Overcast
Light Rain
52°F / 11°C 50°F / 10°C 94% 30.06 in
(1018 mb)
Variable 5.8 mph
(Variable 9 kph)
0.00 in
(0.00 mm)
2 1/2SM
14:04
Overcast
Light Rain
52°F / 11°C 50°F / 10°C 94% 30.04 in
(1017 mb)
NW 4.6 mph
(NW 7 kph)
0.00 in
(0.00 mm)
3SM
13:53
Overcast
Light Rain
52°F / 11°C 50°F / 10°C 94% 30.04 in
(1017 mb)
Variable 4.6 mph
(Variable 7 kph)
0.00 in
(0.00 mm)
2 1/2SM
13:44
Overcast
54°F / 12°C 48°F / 9°C 82% 30.04 in
(1017 mb)
Variable 3.5 mph
(Variable 6 kph)
- 7SM
13:33
Overcast
Fog And Mist
52°F / 11°C 48°F / 9°C 88% 30.04 in
(1017 mb)
NW 8.1 mph
(NW 13 kph)
- 6SM
12:53
Overcast
Fog And Mist
52°F / 11°C 50°F / 10°C 94% 30.04 in
(1017 mb)
NW 5.8 mph
(NW 9 kph)
- 5SM
11:53
Overcast
Fog And Mist
54°F / 12°C 50°F / 10°C 88% 30.04 in
(1017 mb)
NW 5.8 mph
(NW 9 kph)
- 5SM
11:14
Overcast
Fog And Mist
52°F / 11°C 50°F / 10°C 94% 30.04 in
(1017 mb)
NW 5.8 mph
(NW 9 kph)
- 3SM
10:53
Overcast
Fog And Mist
54°F / 12°C 50°F / 10°C 88% 30.04 in
(1017 mb)
Variable 4.6 mph
(Variable 7 kph)
0.01 in
(0.25 mm)
3SM
10:42
Overcast
Fog And Mist
52°F / 11°C 50°F / 10°C 94% 30.04 in
(1017 mb)
NW 5.8 mph
(NW 9 kph)
0.01 in
(0.25 mm)
2SM
10:26
Overcast
Fog And Mist
52°F / 11°C 50°F / 10°C 94% 30.04 in
(1017 mb)
Variable 4.6 mph
(Variable 7 kph)
0.01 in
(0.25 mm)
1 3/4SM
10:18
Overcast
Fog And Mist
52°F / 11°C 50°F / 10°C 94% 30.04 in
(1017 mb)
NW 5.8 mph
(NW 9 kph)
0.01 in
(0.25 mm)
2SM
09:53
Overcast
Light Rain
52°F / 11°C 52°F / 11°C 100% 30.04 in
(1017 mb)
Variable 3.5 mph
(Variable 6 kph)
0.01 in
(0.25 mm)
1SM
09:39
Overcast
Light Rain
52°F / 11°C 52°F / 11°C 100% 30.04 in
(1017 mb)
NW 3.5 mph
(NW 6 kph)
0.01 in
(0.25 mm)
1 1/2SM
09:27
Overcast
Light Rain
52°F / 11°C 52°F / 11°C 100% 30.01 in
(1016 mb)
Variable 3.5 mph
(Variable 6 kph)
0.00 in
(0.00 mm)
1 3/4SM
08:53
Overcast
Light Rain
52°F / 11°C 50°F / 10°C 94% 30.01 in
(1016 mb)
Variable 4.6 mph
(Variable 7 kph)
0.00 in
(0.00 mm)
2SM
08:39
Overcast
Fog And Mist
52°F / 11°C 50°F / 10°C 94% 30.01 in
(1016 mb)
NW 5.8 mph
(NW 9 kph)
0.00 in
(0.00 mm)
2SM
08:15
Overcast
Light Rain
54°F / 12°C 52°F / 11°C 94% 30.01 in
(1016 mb)
Variable 3.5 mph
(Variable 6 kph)
0.00 in
(0.00 mm)
1 1/4SM
08:01
Overcast
Fog And Mist
52°F / 11°C 52°F / 11°C 100% 30.01 in
(1016 mb)
Variable 3.5 mph
(Variable 6 kph)
- 3/4SM
07:53
Overcast
Fog And Mist
54°F / 12°C 52°F / 11°C 94% 30.01 in
(1016 mb)
Variable 3.5 mph
(Variable 6 kph)
- 1SM
07:32
Overcast
Fog And Mist
54°F / 12°C 52°F / 11°C 94% 29.98 in
(1015 mb)
Variable 3.5 mph
(Variable 6 kph)
- 1 1/2SM
07:19
Overcast
Fog And Mist
54°F / 12°C 52°F / 11°C 94% 29.98 in
(1015 mb)
Variable 4.6 mph
(Variable 7 kph)
- 2 1/2SM
07:09
Overcast
Fog And Mist
54°F / 12°C 52°F / 11°C 94% 29.98 in
(1015 mb)
NW 6.9 mph
(NW 11 kph)
- 3SM
07:01
Overcast
Fog And Mist
54°F / 12°C 52°F / 11°C 94% 29.98 in
(1015 mb)
NW 5.8 mph
(NW 9 kph)
- 2 1/2SM
06:53
Overcast
Fog And Mist
54°F / 12°C 52°F / 11°C 94% 29.98 in
(1015 mb)
Calm 0.01 in
(0.25 mm)
3SM
06:39
Overcast
Fog And Mist
54°F / 12°C 52°F / 11°C 94% 29.98 in
(1015 mb)
Variable 3.5 mph
(Variable 6 kph)
0.01 in
(0.25 mm)
3SM
06:30
Overcast
Fog And Mist
54°F / 12°C 52°F / 11°C 94% 29.98 in
(1015 mb)
Calm 0.01 in
(0.25 mm)
3SM
06:13
Overcast
Fog And Mist
54°F / 12°C 52°F / 11°C 94% 29.95 in
(1014 mb)
Variable 4.6 mph
(Variable 7 kph)
0.01 in
(0.25 mm)
2 1/2SM
06:07
Overcast
Fog And Mist
54°F / 12°C 52°F / 11°C 94% 29.95 in
(1014 mb)
Variable 3.5 mph
(Variable 6 kph)
0.01 in
(0.25 mm)
3SM
05:53
Overcast
Light Rain
54°F / 12°C 52°F / 11°C 94% 29.95 in
(1014 mb)
Variable 3.5 mph
(Variable 6 kph)
0.00 in
(0.00 mm)
2 1/2SM
05:40
Overcast
Light Rain
54°F / 12°C 52°F / 11°C 94% 29.95 in
(1014 mb)
NNW 5.8 mph
(NNW 9 kph)
0.00 in
(0.00 mm)
4SM
05:07
Overcast
Light Rain
54°F / 12°C 52°F / 11°C 94% 29.92 in
(1013 mb)
Variable 3.5 mph
(Variable 6 kph)
0.00 in
(0.00 mm)
6SM
04:53
Overcast
Light Rain
54°F / 12°C 52°F / 11°C 94% 29.92 in
(1013 mb)
N 3.5 mph
(N 6 kph)
0.00 in
(0.00 mm)
4SM
04:15
Overcast
54°F / 12°C 52°F / 11°C 94% 29.92 in
(1013 mb)
Variable 3.5 mph
(Variable 6 kph)
0.00 in
(0.00 mm)
7SM
04:06
Overcast
Light Rain
54°F / 12°C 52°F / 11°C 94% 29.92 in
(1013 mb)
Variable 4.6 mph
(Variable 7 kph)
0.00 in
(0.00 mm)
6SM
03:53
Overcast
54°F / 12°C 52°F / 11°C 94% 29.92 in
(1013 mb)
Variable 3.5 mph
(Variable 6 kph)
0.00 in
(0.00 mm)
7SM
02:53
Overcast
Light Rain
55°F / 13°C 52°F / 11°C 88% 29.89 in
(1012 mb)
Calm 0.03 in
(0.76 mm)
7SM
01:53
Overcast
59°F / 15°C 48°F / 9°C 68% 29.92 in
(1013 mb)
NNW 4.6 mph
(NNW 7 kph)
- 10SM
00:53
Overcast
61°F / 16°C 48°F / 9°C 63% 29.92 in
(1013 mb)
Calm 0.00 in
(0.00 mm)
10SM
Time Weather Temperature Dewpoint Humidity Pressure Winds Precip Visibility


Weather for websites

WeatherForYou.com, LLC is not responsible for any damages or problems caused by this service. Current weather conditions are obtained from the closest station including government and personal stations which may have varying degrees of accuracy. Weather forecasts are derived from the NOAA NDFD. Like all things, this site belongs to Jesus Christ... He just trusts us to maintain it. If you have any questions or comments email webmaster@weatherforyou.com

Copyright © 2015, WeatherForYou.com LLC. All rights reserved.